N7TUG-8 Weather Reports


time (UTC)temp
C
wind
direction
speed
KPH
gust
KPH
rain 1hr
cm
rain 24hr
cm
rain mn
cm
humidity
%
barometer
mb
20260505112731 13 142 8.0 19.3 0.00 0.00 0.00 87 1013.3
20260505111936 13 130 11.3 17.7 0.00 0.00 0.00 88 1013.3
20260505111431 13 134 11.3 17.7 0.00 0.00 0.00 88 1013.3
20260505101531 13 121 11.3 22.5 0.00 0.00 0.00 88 1012.8
20260505101116 13 132 9.7 19.3 0.00 0.00 0.00 88 1012.8
20260505100106 13 128 9.7 19.3 0.00 0.00 0.00 88 1012.7
20260505095742 13 126 9.7 20.9 0.00 0.00 0.00 88 1012.8
20260505094741 13 136 9.7 20.9 0.00 0.00 0.00 87 1012.7
20260505094242 13 136 8.0 16.1 0.00 0.00 0.00 88 1012.6
20260505093211 13 127 9.7 19.3 0.00 0.00 0.00 88 1012.6
20260505092826 13 128 11.3 19.3 0.00 0.00 0.00 88 1012.5
20260505091835 13 135 9.7 16.1 0.00 0.00 0.00 88 1012.3
20260505091406 13 128 9.7 16.1 0.00 0.00 0.00 88 1012.4
20260505090531 13 127 8.0 12.9 0.00 0.00 0.00 88 1012.4
20260505090036 13 118 9.7 12.9 0.00 0.00 0.00 88 1012.4
20260505085026 13 121 8.0 14.5 0.00 0.00 0.00 88 1012.3
20260505084836 13 125 8.0 14.5 0.00 0.00 0.00 87 1012.3
20260505083611 13 123 8.0 19.3 0.00 0.00 0.00 87 1012.2
20260505083352 13 130 8.0 19.3 0.00 0.00 0.00 88 1012.1
20260505082131 13 128 9.7 16.1 0.00 0.00 0.00 88 1012.1
20260505082043 13 128 9.7 16.1 0.00 0.00 0.00 88 1012.1
20260505080821 13 132 11.3 19.3 0.00 0.00 0.00 87 1012.2
20260505080656 13 132 11.3 19.3 0.00 0.00 0.00 87 1012.2
20260505075335 13 135 6.4 16.1 0.00 0.00 0.00 86 1012.1
20260505073851 13 116 8.0 17.7 0.00 0.00 0.00 86 1011.8
20260505072944 13 123 8.0 14.5 0.00 0.00 0.00 85 1011.7
20260505072457 13 123 8.0 14.5 0.00 0.00 0.00 85 1011.7
20260505072426 13 123 8.0 14.5 0.00 0.00 0.00 85 1011.7
20260505071112 13 128 8.0 17.7 0.00 0.00 0.00 85 1011.5
20260505070935 13 126 8.0 17.7 0.00 0.00 0.00 85 1011.5
20260505065736 14 121 9.7 17.7 0.00 0.00 0.00 85 1011.4
20260505065626 14 121 9.7 17.7 0.00 0.00 0.00 85 1011.4
20260505064407 14 115 9.7 16.1 0.00 0.00 0.00 84 1011.3
20260505064031 14 115 9.7 16.1 0.00 0.00 0.00 84 1011.3
20260505063201 14 117 6.4 14.5 0.00 0.00 0.00 84 1011.2
20260505062555 14 116 8.0 17.7 0.00 0.00 0.00 83 1011.1
20260505061055 15 129 9.7 17.7 0.00 0.00 0.00 82 1010.8
20260505060427 15 122 11.3 16.1 0.00 0.00 0.00 82 1010.7
20260505055455 15 125 11.3 17.7 0.00 0.00 0.00 82 1010.5
20260505054011 15 141 11.3 17.7 0.00 0.00 0.00 81 1010.4
20260505053832 15 141 11.3 17.7 0.00 0.00 0.00 81 1010.4
20260505052435 15 144 9.7 14.5 0.00 0.00 0.00 81 1010.3
20260505051046 16 145 9.7 17.7 0.00 0.00 0.00 80 1010.3
20260505041432 18 176 6.4 11.3 0.00 0.00 0.00 73 1009.6
20260505041055 18 176 6.4 11.3 0.00 0.00 0.00 73 1009.6
20260505035651 18 161 9.7 11.3 0.00 0.00 0.00 73 1009.3
20260505034141 19 163 8.0 11.3 0.00 0.00 0.00 71 1009.1
20260505033332 20 173 8.0 14.5 0.00 0.00 0.00 70 1008.9
20260505032726 20 168 8.0 14.5 0.00 0.00 0.00 70 1008.9
20260505032116 20 166 9.7 14.5 0.00 0.00 0.00 69 1008.9
20260505031315 20 162 11.3 14.5 0.00 0.00 0.00 68 1008.8
20260505030722 21 159 11.3 14.5 0.00 0.00 0.00 65 1008.7
20260505030011 23 192 4.8 8.0 0.00 0.00 0.00 60 1008.5
20260505025347 23 241 1.6 6.4 0.00 0.00 0.00 59 1008.5
20260505024506 23 253 3.2 6.4 0.00 0.00 0.00 57 1008.4
20260505023155 24 238 3.2 6.4 0.00 0.00 0.00 56 1008.4
20260505021821 22 325 4.8 11.3 0.00 0.00 0.00 59 1008.4
20260505021328 22 320 8.0 12.9 0.00 0.00 0.00 59 1008.4
20260505020501 24 319 8.0 14.5 0.00 0.00 0.00 58 1008.3
20260505015946 25 182 6.4 14.5 0.00 0.00 0.00 58 1008.3
20260505014915 25 168 8.0 12.9 0.00 0.00 0.00 58 1008.2
20260505013455 25 165 9.7 12.9 0.00 0.00 0.00 57 1008.2
20260505012145 25 169 8.0 14.5 0.00 0.00 0.00 57 1008.3
20260505010731 25 156 9.7 14.5 0.00 0.00 0.00 57 1008.3
20260505010356 25 165 9.7 12.9 0.00 0.00 0.00 57 1008.3
20260505005306 25 168 8.0 12.9 0.00 0.00 0.00 55 1008.3
20260505005027 25 168 8.0 12.9 0.00 0.00 0.00 55 1008.3
20260505003706 25 170 9.7 12.9 0.00 0.00 0.00 54 1008.4
20260505003627 25 170 9.7 12.9 0.00 0.00 0.00 54 1008.4
20260505002256 26 166 8.0 11.3 0.00 0.00 0.00 53 1008.4
20260505000906 26 157 6.4 9.7 0.00 0.00 0.00 52 1008.5
20260504235515 26 159 6.4 9.7 0.00 0.00 0.00 51 1008.5
20260504234327 26 158 6.4 11.3 0.00 0.00 0.00 51 1008.6
20260504234146 26 158 6.4 11.3 0.00 0.00 0.00 51 1008.6
20260504232837 26 179 6.4 11.3 0.00 0.00 0.00 50 1008.5
20260504231727 26 148 6.4 11.3 0.00 0.00 0.00 50 1008.5
20260504231541 26 148 6.4 11.3 0.00 0.00 0.00 50 1008.5
20260504230422 25 146 8.0 12.9 0.00 0.00 0.00 51 1008.7
20260504230021 25 146 8.0 12.9 0.00 0.00 0.00 51 1008.7
20260504224721 25 140 8.0 12.9 0.00 0.00 0.00 51 1009.0
20260504223656 26 158 6.4 12.9 0.00 0.00 0.00 51 1009.0
20260504223351 26 152 4.8 9.7 0.00 0.00 0.00 51 1009.1
20260504222336 26 180 4.8 8.0 0.00 0.00 0.00 52 1009.3
20260504221835 26 160 4.8 9.7 0.00 0.00 0.00 51 1009.3
20260504220952 26 180 4.8 11.3 0.00 0.00 0.00 53 1009.4
20260504220426 25 154 8.0 11.3 0.00 0.00 0.00 55 1009.4
20260504215736 25 148 8.0 11.3 0.00 0.00 0.00 55 1009.5
20260504215111 25 149 6.4 12.9 0.00 0.00 0.00 55 1009.5
20260504214536 25 140 6.4 12.9 0.00 0.00 0.00 56 1009.5
20260504213611 24 140 8.0 11.3 0.00 0.00 0.00 57 1009.5
20260504213112 24 156 6.4 11.3 0.00 0.00 0.00 58 1009.6
20260504212215 24 149 6.4 12.9 0.00 0.00 0.00 59 1009.8
20260504210845 23 151 8.0 12.9 0.00 0.00 0.00 59 1009.8
20260504210226 23 142 8.0 12.9 0.00 0.00 0.00 60 1009.8
20260504205425 23 163 8.0 12.9 0.00 0.00 0.00 59 1009.8
20260504205023 23 163 8.0 12.9 0.00 0.00 0.00 59 1009.8
20260504204121 24 155 6.4 11.3 0.00 0.00 0.00 59 1009.8
20260504202731 23 151 6.4 11.3 0.00 0.00 0.00 60 1009.8
20260504202217 23 148 6.4 9.7 0.00 0.00 0.00 60 1009.8
20260504201439 23 143 6.4 12.9 0.00 0.00 0.00 60 1009.8
20260504200836 23 169 4.8 12.9 0.00 0.00 0.00 60 1009.9
20260504200011 22 174 4.8 14.5 0.00 0.00 0.00 61 1009.8
20260504194716 22 159 6.4 11.3 0.00 0.00 0.00 60 1009.9
20260504193211 22 166 9.7 12.9 0.00 0.00 0.00 59 1010.0
20260504192712 22 164 8.0 12.9 0.00 0.00 0.00 59 1010.0
20260504191751 22 170 9.7 12.9 0.00 0.00 0.00 58 1010.1
20260504190434 23 179 6.4 9.7 0.00 0.00 0.00 55 1010.2
20260504185927 23 166 4.8 8.0 0.00 0.00 0.00 53 1010.3
20260504185046 23 123 3.2 6.4 0.00 0.00 0.00 54 1010.2
20260504183531 23 165 3.2 9.7 0.00 0.00 0.00 56 1010.3
20260504183116 22 161 4.8 9.7 0.00 0.00 0.00 57 1010.2
20260504181935 23 170 4.8 8.0 0.00 0.00 0.00 56 1010.4
20260504181742 23 170 4.8 8.0 0.00 0.00 0.00 56 1010.4
20260504180625 22 171 6.4 11.3 0.00 0.00 0.00 58 1010.3
20260504175126 22 158 3.2 8.0 0.00 0.00 0.00 56 1010.3
20260504174947 22 149 4.8 8.0 0.00 0.00 0.00 57 1010.2
20260504173651 21 159 3.2 6.4 0.00 0.00 0.00 59 1010.3
20260504173532 21 159 3.2 6.4 0.00 0.00 0.00 59 1010.3
20260504172346 20 160 6.4 8.0 0.00 0.00 0.00 60 1010.3
20260504171031 20 154 6.4 9.7 0.00 0.00 0.00 59 1010.3
20260504170907 20 147 4.8 9.7 0.00 0.00 0.00 58 1010.4
20260504150716 16 98 1.6 4.8 0.00 0.00 0.00 73 1009.8
20260504150226 16 105 1.6 4.8 0.00 0.00 0.00 73 1009.7
20260504141252 17 114 0.0 1.6 0.00 0.00 0.00 69 1009.6
20260504140626 17 140 0.0 1.6 0.00 0.00 0.00 70 1009.5
20260504130412 12 331 3.2 4.8 0.00 0.00 0.00 78 1009.1